Location: Unspecified
(0.0000°N, 0.0000°E)
Time: 07:50:26
(UTC-01:00)

Tiangong 2 - Visible Passes

Search period start: 25 April 2018 00:00
Search period end: 05 May 2018 00:00
Orbit: 381 x 388 km, 42.8° (Epoch: 24 April)

Date Brightness Start Highest point End Pass type
(mag) Time Alt. Az. Time Alt. Az. Time Alt. Az.
26 Apr 1.8 03:56:58 20° SSW 03:58:54 50° SE 04:01:58 10° ENE visible
27 Apr 4.2 03:00:50 14° ESE 03:00:50 14° ESE 03:01:37 10° E visible
28 Apr 1.7 03:36:53 43° NNW 03:36:53 43° NNW 03:39:27 10° NNE visible
